Probability
0 0 0 0 0 0 0 0 0 0 0 0 0 0 0 0 0 0 0 0 0 0 0 0 0 0 0 0 0 0 0 0 0 0 0 0 0 0 0 0 0 0 0
0 0 0 0 0 0 0 0 0 0 0 0 0 0 0 0 0 0 0 0 0 0 0 0 0 0 0 0 0 0 0 0 0 0 0 0 0 0 0 0 0 0 0
0 0 0 0 0 0 0 0 0 0 0 0 0 0 0 0 0 0 0 0 0 0 0 0 0 0 0 0 0 0 0 0 0 0 0 0 0 0 0 0 0 0 0
0 0 0 0 0 0 0 0 0 0 0 0 0 0 0 0 0 0 0 0 0 0 0 0 0 0 0 0 0 0 0 0 0 0 0 0 0 0 0 0 0 0 0
0 0 0 0 0 0 0 0 0 0 0 0 0 0 0 0 0 0 0 0 0 0 0 0 0 0 0 0 0 0 0 0 0 0 0 0 0 0 0 0 0 0 0
0 0 0 0 0 0 0 0 0 0 0 0 0 0 0 0 0 0 0 0 0 0 0 0 0 0 0 0 0 0 0 0 0 0 0 0 0 0 0 0 0 0 0
0 0 0 0 0 0 0 0 0 0 0 0 0 0 0 0 0 0 0 0 0 0 0 0 0 0 0 0 0 0 0 0 0 0 0 0 0 0 0 0 0 0 0
0 0 0 0 0 0 0 0 0 0 0 0 0 0 0 0 0 0 0 0 0 0 0 0 0 0 0 0 0 0 0 0 0 0 0 0 0 0 0 0 0 0 0
0 0 0 0 0 0 0 0 0 0 0 0 0 0 0 0 0 0 0 0 0 0 0 0 0 0 0 0 0 0 0 0 0 0 0 0 0 0 0 0 0 0 0
0 0 0 0 0 0 0 0 0 0 0 0 0 0 0 0 0 0 0 0 0 0 0 0 0 0 0 0 0 0 0 0 0 0 0 0 0 0 0 0 0 0 0
0 0 0 0 0 0 0 0 0 0 0 0 0 0 0 0 0 0 0 0 0 0 0 0 0 0 0 0 0 0 0 0 0 0 0 0 0 0 0 0 0 0 0
0 0 0 0 0 0 0 0 0 0 0 0 0 0 0 0 0 0 0 0 0 0 0 0 0 0 0 0 0 0 0 0 0 0 0 0 0 0 0 0 0 0 0
0 0 0 0 0 0 0 0 0 0 0 0 0 0 0 0 0 0 0 0 0 0 0 0 0 0 0 0 0 0 0 0 0 0 0 0 0 0 0 0 0 0 0
0 0 0 0 0 0 0 0 0 1 0 0 0 0 0 0 0 0 0 0 0 0 0 0 0 0 0 0 0 0 0 0 0 0 0 0 0 0 0 0 0 0 0
0 0 0 0 0 0 0 0 0 0 0 0 0 0 0 0 0 0 0 0 0 0 0 0 0 0 0 0 0 0 0 0 0 0 0 0 0 0 0 0 0 0 0
0 0 0 0 0 0 0 0 0 0 0 0 0 0 0 0 0 0 0 0 0 0 0 0 0 0 0 0 0 0 0 0 0 0 0 0 0 0 0 0 0 0 0
0 0 0 0 0 0 0 0 0 0 0 0 0 0 0 0 0 0 0 0 0 0 0 0 0 0 0 0 0 0 0 0 0 0 0 0 0 0 0 0 0 0 0
0 0 0 0 0 0 0 0 0 0 0 0 0 0 0 0 0 0 0 0 0 0 0 0 0 0 0 0 0 0 0 0 0 0 0 0 0 0 0 0 0 0 0
0 0 0 0 0 0 0 0 0 0 0 0 0 0 0 0 0 0 0 0 0 0 0 0 0 0 0 0 0 0 0 0 0 0 0 0 0 0 0 0 0 0 0
0 0 0 0 0 0 0 0 0 0 0 0 0 0 0 0 0 0 0 0 0 0 0 0 0 0 0 0 0 0 0 0 0 0 0 0 0 0 0 0 0 0 0
0 0 0 0 0 0 0 0 0 0 0 0 0 0 0 0 0 0 0 0 0 0 0 0 0 0 0 0 0 0 0 0 0 0 0 0 0 0 0 0 0 0 0
0 0 0 0 0 0 0 0 0 0 0 0 0 0 0 0 0 0 0 0 0 0 0 0 0 0 0 0 0 0 0 0 0 0 0 0 0 0 0 0 0 0 0
0 0 0 0 0 0 0 0 0 0 0 0 0 0 0 0 0 0 0 0 0 0 0 0 0 0 0 0 0 0 0 0 0 0 0 0 0 0 0 0 0 0 0
0 0 0 0 0 0 0 0 0 0 0 0 0 0 0 0 0 0 0 0 0 0 0 0 0 0 0 0 0 0 0 0 0 0 0 0 0 0 0 0 0 0 0
0 0 0 0 0 0 0 0 0 0 0 0 0 0 0 0 0 0 0 0 0 0 0 0 0 0 0 0 0 0 0 0 0 0 0 0 0 0 0 0 0 0 0
0 0 0 0 0 0 0 0 0 0 0 0 0 0 0 0 0 0 0 0 0 0 0 0 0 0 0 0 0 0 0 0 0 0 0 0 0 0 0 0 0 0 0
Wind_Speed
4 5 10 11 12 12 11 11 10 10 11 11 11 11 11 11 10 10 11 12 13 13 12 12 12 12 11 11 12 12 12 12 13 13 13 13 13 14 14 13 11 7 12
6 7 10 11 12 12 11 11 10 10 10 10 10 10 10 10 10 11 11 11 11 11 11 11 11 11 11 10 10 10 10 11 11 11 12 11 12 13 15 15 14 10 14
6 9 9 11 12 12 11 11 10 10 10 10 9 9 9 9 9 10 10 10 10 10 10 10 10 10 10 10 9 9 8 8 8 8 8 5 6 12 13 14 15 15 15
6 8 9 11 12 12 12 11 10 10 10 9 9 9 9 9 9 9 9 9 8 8 8 9 9 9 9 9 9 8 7 6 6 7 5 4 4 10 12 13 13 14 15
5 7 8 12 12 13 12 12 11 10 10 9 9 8 9 8 8 8 8 7 7 6 6 7 7 8 8 8 7 7 6 7 8 7 5 4 4 9 11 11 12 12 13
5 6 7 12 13 13 13 12 12 11 10 10 9 9 9 9 9 8 7 6 5 5 4 5 6 7 7 7 6 6 6 8 8 5 5 4 3 7 9 9 9 10 10
5 5 6 11 12 12 12 12 12 11 10 10 9 9 9 9 9 7 6 5 4 3 3 4 5 6 6 6 5 5 6 8 6 5 4 4 3 6 7 6 7 7 8
4 4 4 9 10 11 11 11 11 10 10 9 9 9 9 10 9 7 5 4 2 2 2 3 4 5 5 5 5 4 5 6 6 5 4 3 4 5 5 5 5 5 6
2 3 3 5 6 9 10 10 10 9 9 8 8 8 8 9 8 7 5 3 2 1 1 2 3 4 4 4 5 5 6 7 5 3 3 3 3 3 4 4 4 4 4
1 1 2 4 5 5 6 9 9 9 8 8 7 7 8 8 8 7 5 3 2 1 1 2 2 3 4 5 5 5 6 6 4 3 2 3 4 2 3 3 3 3 3
4 3 2 4 5 5 5 6 7 8 8 7 5 6 6 4 4 5 5 4 2 1 2 2 2 3 6 6 6 6 5 2 2 2 2 4 3 2 1 2 2 2 2
7 6 4 4 5 6 4 4 4 4 4 4 3 3 3 3 3 4 5 4 2 1 1 2 3 6 6 3 5 6 2 2 2 1 2 5 4 3 2 1 1 0 1
7 7 6 5 5 6 5 4 3 2 3 3 4 4 4 3 3 3 2 2 2 2 2 2 4 3 3 2 2 3 3 2 2 2 3 6 5 5 4 3 2 2 1
9 9 8 6 5 6 5 4 3 3 3 2 3 4 4 3 3 3 2 2 2 2 2 2 2 2 2 2 2 3 3 2 2 2 4 8 7 7 6 5 4 3 3
10 11 10 7 5 4 5 3 3 3 3 3 3 4 4 3 4 3 3 3 3 3 3 2 2 1 1 1 2 2 3 3 3 3 3 8 9 8 8 7 6 5 5
12 12 11 9 4 2 3 3 2 2 2 2 2 4 4 3 3 3 3 3 3 3 3 3 3 2 1 1 2 2 3 3 3 4 3 5 9 9 9 9 8 8 7
11 11 11 9 7 3 2 2 2 2 2 1 0 1 2 3 4 4 3 3 3 3 3 3 3 2 1 0 2 2 2 3 3 4 4 3 4 8 9 9 9 9 8
10 11 11 10 10 9 7 7 6 5 5 4 3 3 3 1 1 2 2 1 2 2 2 2 2 2 1 1 2 2 2 3 4 4 4 4 4 4 7 10 9 9 9
10 10 11 12 12 11 11 11 11 10 10 9 9 8 8 8 6 4 3 2 2 1 1 1 1 1 1 2 2 3 3 3 4 4 5 5 4 4 4 8 10 9 8
9 10 12 12 12 9 9 10 11 12 11 11 11 12 14 11 11 8 6 6 4 3 3 2 2 2 1 1 2 3 4 4 4 5 5 4 4 4 4 5 5 6 9
12 13 13 14 12 9 6 6 7 9 9 10 12 15 15 14 14 12 8 8 7 5 4 3 3 2 2 2 2 3 4 4 5 4 3 3 4 4 4 4 4 4 4
11 11 12 13 13 11 7 5 5 6 7 8 9 13 15 15 14 11 11 8 8 6 7 5 3 2 2 2 2 3 5 5 4 2 2 2 3 2 4 4 4 5 4
11 11 10 12 12 12 9 6 6 6 5 7 10 10 13 13 13 13 12 10 9 8 7 7 5 3 2 1 1 2 3 4 5 4 3 2 2 3 4 4 5 5 5
8 7 9 11 12 11 10 12 14 11 9 6 5 6 9 12 13 13 12 12 10 9 9 7 6 4 3 2 2 1 1 1 3 6 4 3 3 4 5 5 5 5 6
6 7 7 10 12 11 11 11 12 11 7 5 5 9 9 9 12 12 11 11 10 9 9 9 8 7 4 3 2 2 2 2 3 4 7 5 4 3 4 5 5 5 6
6 6 7 10 11 9 11 11 12 11 9 9 9 8 7 6 8 11 10 9 9 8 8 8 7 7 6 5 3 2 2 3 2 3 6 6 6 5 5 4 5 6 6
Wind_Direction
208 190 188 168 162 155 147 139 130 123 117 114 111 109 106 105 104 101 96 90 82 75 67 62 58 58 59 58 57 61 62 61 60 59 59 61 62 62 58 52 50 48 58
166 171 185 169 165 160 152 145 138 131 126 121 116 112 108 106 105 102 97 92 84 76 69 61 56 54 53 52 54 57 60 60 61 61 59 56 61 61 57 51 50 50 53
150 164 175 170 167 162 156 151 148 144 138 133 126 121 115 111 108 103 98 92 84 75 67 60 54 49 46 45 45 46 49 54 61 64 61 46 55 65 60 55 51 48 46
156 163 170 170 168 164 159 158 158 155 150 144 138 131 125 120 114 107 99 91 81 71 62 55 49 45 42 40 37 35 37 48 66 69 55 46 46 71 66 60 55 50 46
157 166 170 171 170 168 165 165 166 165 161 156 150 145 139 130 121 110 101 93 81 70 61 52 44 41 38 36 34 32 45 65 78 75 64 50 43 74 71 65 60 54 47
162 168 173 175 176 174 172 173 174 174 172 168 164 159 151 140 129 120 110 99 85 72 60 54 44 36 33 32 31 37 65 80 77 71 64 50 44 77 74 69 63 57 49
164 170 177 181 183 181 180 181 182 182 181 179 177 173 163 152 140 130 123 111 95 75 62 58 46 33 28 28 29 41 75 87 82 72 63 45 52 76 71 64 59 54 48
165 172 179 190 190 188 188 189 189 190 189 189 187 182 171 160 151 143 139 133 121 89 68 59 48 35 29 30 31 49 79 82 79 70 58 37 53 67 65 57 54 50 45
162 174 187 190 197 197 195 194 195 196 196 196 194 188 175 165 157 150 145 150 154 139 92 71 56 37 30 33 34 54 80 83 75 61 49 17 21 58 56 47 41 44 44
54 221 218 204 198 199 201 202 201 202 203 203 203 191 179 169 158 151 148 154 172 190 152 100 72 40 36 33 34 58 76 73 70 59 33 354 15 40 47 35 29 41 47
356 333 280 238 218 207 201 201 203 207 210 209 210 196 174 156 151 150 157 161 163 166 163 142 110 66 52 30 28 46 54 52 63 45 5 344 5 359 24 19 15 42 57
340 332 310 265 238 221 208 194 193 195 203 201 186 174 158 152 155 148 161 160 134 94 149 171 119 75 62 28 10 22 19 23 29 4 334 344 346 324 306 309 308 344 87
327 328 323 293 257 231 217 199 188 181 184 190 181 167 157 149 140 134 127 123 90 71 60 55 75 75 65 38 9 0 356 0 347 334 328 332 331 314 292 274 263 246 185
340 336 326 306 272 240 223 207 190 178 178 180 173 165 157 152 152 152 149 146 131 117 120 102 108 101 72 41 17 354 348 342 328 325 314 322 318 306 289 270 251 242 227
349 341 332 317 283 245 221 209 192 185 180 174 166 167 166 165 171 170 164 158 156 145 152 154 152 149 76 14 6 358 339 334 325 320 317 319 317 305 288 274 255 241 233
351 343 337 337 322 248 205 194 180 169 163 165 170 177 175 172 174 174 172 173 179 173 167 163 166 166 165 351 329 336 327 322 317 312 306 311 313 310 298 279 265 250 235
347 347 354 357 7 42 96 108 94 90 99 105 162 183 185 181 180 175 176 189 193 165 152 141 140 134 166 257 298 309 311 311 305 301 300 296 301 305 305 293 278 264 245
355 1 8 16 29 48 63 70 66 60 57 44 32 31 30 47 115 144 162 199 157 139 150 155 147 169 211 240 270 288 299 300 292 287 287 287 291 295 301 298 294 281 257
2 9 19 24 34 49 63 66 62 56 49 41 36 31 29 32 37 47 42 37 74 93 118 139 127 161 228 250 266 277 278 275 275 279 275 273 274 283 292 300 304 300 279
10 22 29 32 32 41 59 66 63 57 50 46 42 36 36 35 36 40 40 37 42 44 34 22 34 42 2 319 299 287 273 264 262 258 261 266 269 278 288 297 307 305 294
24 30 32 37 31 38 48 53 58 55 48 48 45 40 39 38 38 40 39 37 35 39 36 34 35 25 14 11 331 312 300 271 267 270 274 282 291 301 305 303 306 307 303
28 29 36 38 37 41 50 60 72 77 58 54 48 44 39 39 37 39 37 36 31 33 34 33 37 28 19 22 352 331 327 329 337 322 303 279 294 313 300 295 293 289 292
30 27 38 41 44 42 48 69 72 63 56 45 39 41 37 39 40 39 37 36 33 34 29 22 21 19 357 354 3 329 323 307 318 315 335 314 283 270 267 266 265 265 268
24 25 41 49 50 45 50 67 73 74 69 49 45 47 43 42 41 40 38 37 35 33 27 19 19 12 5 345 334 305 252 281 301 311 311 309 297 277 276 276 269 264 256
28 36 44 57 56 52 57 66 77 78 76 66 54 51 44 39 38 36 37 37 35 31 26 22 19 19 14 357 336 319 302 260 233 262 292 305 309 282 268 259 256 256 253
43 46 53 66 62 56 64 67 76 81 77 68 55 48 40 35 33 31 32 33 32 28 24 17 18 20 14 5 352 334 312 296 288 266 282 296 290 278 269 253 248 249 245